Freeport, Bahamas

2:29 AM EDT on September 26, 2017 (GMT -0400)
Freeport

Weather History for 78062 - April, 2014

Change the Weather History Date:

Tuesday, April 1, 2014

  Actual Average Record
Temperature  
Mean Temperature 70 °F -  
Max Temperature 78 °F 78 °F - ()
Min Temperature 61 °F 67 °F - ()
Cooling Degree Days 4    
Growing Degree Days 20 (Base 50)    
Moisture  
Dew Point 64 °F    
Average Humidity 73    
Maximum Humidity 100    
Minimum Humidity 60    
Precipitation  
Precipitation 0.00 in - - ()
Sea Level Pressure  
Sea Level Pressure 30.13 in    
Wind  
Wind Speed 5 mph ()    
Max Wind Speed 17 mph    
Max Gust Speed -    
Visibility 7.7 miles    
Events      
T = Trace of Precipitation, MM = Missing Value Source: Averaged Metar Reports

Daily Weather History Graph

Daily Weather History Graph

Search for Another Location

Airport or City:

Trip Planner

Search our weather history database for the weather conditions in past years. The results will help you decide how hot, cold, wet, or windy it might be!

Date:

Astronomy

Apr. 01, 2014 Rise Set
Actual Time 7:05 AM EDT 7:31 PM EDT
Civil Twilight 6:42 AM EDT 7:55 PM EDT
Nautical Twilight 6:15 AM EDT 8:22 PM EDT
Astronomical Twilight 5:47 AM EDT 8:50 PM EDT
Moon 8:17 AM EDT (4/1) 9:39 PM EDT (4/1)
Length of Visible Light 13h 12m
Length of Day
12h 26m
Waxing Crescent, 4% of the Moon is Illuminated
Apr 1
Waxing Crescent
Apr 7
First Quarter
Apr 15
Full
Apr 22
Last Quarter
Apr 29
New

Hourly Weather History & Observations

Time (EDT) Temp. Dew Point Humidity Pressure Visibility Wind Dir Wind Speed Gust Speed Precip Events Conditions
7:00 AM 60.8 °F 60.8 °F 100% 30.11 in 6.2 mi Calm Calm - N/A   Scattered Clouds
8:00 AM 65 °F 62 °F 85% 30.12 in 9 mi East 3.5 mph - -   Mist
8:00 AM 66.2 °F 60.8 °F 83% 30.12 in 6.2 mi East 3.5 mph - N/A   Scattered Clouds
9:00 AM 71.6 °F 64.4 °F 78% 30.14 in - ENE 4.6 mph - N/A   Clear
10:00 AM 73.4 °F 64.4 °F 73% 30.16 in - NE 6.9 mph - N/A   Clear
11:00 AM 73 °F 63 °F 62% 30.16 in 12 mi NE 9.2 mph - -   Scattered Clouds
11:00 AM 73.4 °F 62.6 °F 69% 30.16 in - NE 9.2 mph - N/A   Clear
12:00 PM 75.2 °F 64.4 °F 69% 30.16 in - ENE 12.7 mph - N/A   Clear
1:00 PM 75.2 °F 64.4 °F 69% 30.14 in 6.2 mi NNE 12.7 mph - N/A   Partly Cloudy
2:00 PM 76 °F 65 °F 61% 30.14 in 12 mi North 17.3 mph - -   Scattered Clouds
2:00 PM 75.2 °F 64.4 °F 69% 30.14 in 6.2 mi North 17.3 mph - N/A   Partly Cloudy
3:00 PM 75.2 °F 64.4 °F 69% 30.12 in 6.2 mi NE 13.8 mph - N/A   Scattered Clouds
4:00 PM 75.2 °F 66.2 °F 73% 30.11 in 6.2 mi NE 4.6 mph - N/A   Scattered Clouds
5:00 PM 76 °F 65 °F 60% 30.11 in 12 mi ESE 3.5 mph - -   Partly Cloudy
5:00 PM 75.2 °F 64.4 °F 69% 30.11 in 6.2 mi ESE 3.5 mph - N/A   Scattered Clouds
6:00 PM 75.2 °F 66.2 °F 73% 30.11 in 6.2 mi Variable 2.3 mph - N/A   Scattered Clouds
7:00 PM 75.2 °F 64.4 °F 69% 30.12 in 6.2 mi ESE 3.5 mph - N/A   Scattered Clouds
8:00 PM 72 °F 64 °F 71% 30.13 in 9 mi ENE 4.6 mph - -   Scattered Clouds
8:00 PM 71.6 °F 64.4 °F 78% 30.13 in 6.2 mi ENE 4.6 mph - N/A   Partly Cloudy